Location: *
(51.1248°S, 108.4023°W)
Time: 22:20:39
(UTC+00:00)

Cosmos 2369 Rocket - Pass Details

Date: 15 June 2021
Orbit: 828 x 853 km, 71.0° (Epoch: 04 August)

Event Time Altitude Azimuth Distance (km) Brightness Sun altitude
Exits shadow 14:15:01 11° 249° (WSW) 2,399 3.9 -9.0°
Maximum altitude 14:18:24 18° 210° (SSW) 1,996 3.7 -8.6°
Drops below altitude 10° 14:22:07 10° 169° (S) 2,477 4.5 -8.1°
Sets 14:25:28 0° 149° (SSE) 3,412 5.4 -7.6°
